Home   Weather   Nadiad   Past weeks

Flag for India Past Weather in Nadiad, Gujarat, India — Yesterday and Last 2 Weeks

Now
91 °F

Haze.


Feels Like: 100 °F
Forecast: 78 / 103 °F
Wind: N/A

Location: Ahmadabad Airport

Current Time: Apr 29, 2017 at 11:26:52 am

Latest Report: Apr 29, 2017 at 11:00 am


Visibility: 2 mi

Pressure: 29.83 "Hg

Humidity: 56%

Dew Point: 73 °F

Location of NadiadLocation

Past Weather in Nadiad — Graph

°F

Nadiad Temperature Yesterday

Maximum temperature yesterday: 102 °F (at 4:00 pm)
Minimum temperature yesterday: 81 °F (at 4:00 am)
Average temperature yesterday: 91 °F

High & Low Weather Summary for the Past Weeks

 TemperatureHumidityPressure
High111 °F (Apr 14, 3:30 pm)84% (Apr 21, 5:30 am)29.89 "Hg (Apr 21, 5:30 am)
Low75 °F (Apr 15, 6:00 am)6% (Apr 27, 5:30 pm)29.59 "Hg (Apr 19, 4:30 pm)
Average91 °F38%29.76 "Hg
* Reported Apr 14 9:30 am — Apr 29 10:00 am, Nadiad, Weather by CustomWeather, © 2017

Note: Actual official high and low records may vary slightly from our data, if they occured in-between our weather recording intervals... More about our weather records

Advertising

Nadiad Weather History for the Previous 24 Hours

Scroll right to see more
 ConditionsComfort  
Time TempWeatherWind HumidityBarometerVisibility
10:00 am
Sat, Apr 29
90 °FHaze.8 mph59%29.83 "Hg3 mi
9:30 am88 °FHaze.5 mph62%29.86 "Hg3 mi
9:00 am86 °FHaze.6 mph66%29.86 "Hg3 mi
8:30 am86 °FHaze.6 mph66%29.86 "Hg2 mi
8:00 am84 °FClear.5 mph70%29.83 "Hg2 mi
7:30 am82 °FClear.8 mph74%29.83 "Hg2 mi
7:00 am81 °FHaze.7 mph79%29.83 "Hg2 mi
6:30 am81 °FHaze.7 mph79%29.80 "Hg2 mi
6:00 am81 °FClear.7 mph79%29.80 "Hg2 mi
5:00 am81 °FClear.8 mph79%29.80 "Hg2 mi
4:30 am82 °FClear.7 mph70%29.80 "Hg2 mi
4:00 am82 °FClear.6 mph70%29.80 "Hg2 mi
3:30 am82 °FClear.6 mph66%29.80 "Hg2 mi
3:00 am84 °FClear.6 mph62%29.77 "Hg2 mi
2:30 am84 °FClear.12 mph58%29.77 "Hg2 mi
2:00 am84 °FClear.7 mph55%29.77 "Hg2 mi
1:30 am86 °FClear.6 mph46%29.77 "Hg2 mi
1:00 am86 °FClear.9 mph43%29.77 "Hg2 mi
12:30 am88 °FClear.8 mph35%29.80 "Hg2 mi
12:00 am90 °FClear.7 mph33%29.80 "Hg2 mi
11:30 pm
Fri, Apr 28
88 °FClear.9 mph38%29.80 "Hg2 mi
11:00 pm88 °FClear.7 mph46%29.80 "Hg2 mi
10:30 pm90 °FClear.8 mph43%29.77 "Hg2 mi
10:00 pm91 °FClear.7 mph38%29.77 "Hg2 mi
9:30 pm91 °FClear.14 mph38%29.77 "Hg2 mi
9:00 pm95 °FClear.8 mph30%29.74 "Hg2 mi
8:00 pm99 °FClear.6 mph24%29.71 "Hg2 mi
7:30 pm99 °FClear.5 mph22%29.71 "Hg2 mi
7:00 pm100 °FDuststorm.7 mph20%29.71 "Hg2 mi
6:00 pm102 °FClear.9 mph20%29.68 "Hg4 mi
5:30 pm102 °FClear.12 mph21%29.68 "Hg4 mi
5:00 pm102 °FClear.12 mph23%29.68 "Hg4 mi
4:30 pm102 °FClear.10 mph21%29.71 "Hg4 mi
4:00 pm102 °FClear.10 mph23%29.71 "Hg4 mi
3:30 pm100 °FClear.8 mph25%29.74 "Hg4 mi
3:00 pm100 °FClear.10 mph22%29.74 "Hg4 mi
2:30 pm100 °FClear.13 mph24%29.77 "Hg4 mi
2:00 pm100 °FClear.10 mph22%29.80 "Hg4 mi
1:00 pm99 °FClear.6 mph31%29.83 "Hg4 mi
12:30 pm97 °FClear.6 mph32%29.83 "Hg4 mi
12:00 pm95 °FClear.5 mph34%29.86 "Hg4 mi
11:30 am93 °FClear.8 mph36%29.86 "Hg3 mi
11:00 am93 °FClear.6 mph41%29.86 "Hg3 mi
Weather by CustomWeather, © 2017

See weather overviewHow to use our weather pages